Location: Hac?musa Deresi
(39.1694°N, 32.2508°E)
Time: 09:59:55
(UTC+00:00)

Cosmos 1763 Rocket - Pass Details

Date: 22 April 2026
Orbit: 728 x 774 km, 74.0° (Epoch: 12 May)

Event Time Altitude Azimuth Distance (km) Brightness Sun altitude
Exits shadow 23:52:02 54° 43° (NE) 932 4.1 -31.0°
Drops below altitude 10° 23:56:12 10° 23° (NNE) 2,325 6.8 -30.5°
Sets 23:58:36 0° 21° (NNE) 3,258 7.8 -30.2°
